Date,TemperatureHighF,TemperatureAvgF,TemperatureLowF,DewpointHighF,DewpointAvgF,DewpointLowF,HumidityHigh,HumidityAvg,HumidityLow,PressureMaxIn,PressureMinIn,WindSpeedMaxMPH,WindSpeedAvgMPH,GustSpeedMaxMPH,PrecipitationSumIn
2013-2-2,56.1,46.9,34.2,21.3,17.0,11.2,39,30,24,29.95,29.89,6,2,6,0.00
2013-2-3,53.1,41.2,28.0,27.6,19.1,10.5,53,42,27,29.92,29.64,5,1,5,0.00
2013-2-4,56.8,42.9,30.0,29.6,24.4,18.1,73,50,28,29.75,29.65,8,2,8,0.00
2013-2-5,59.7,43.0,31.1,23.6,19.6,14.9,61,41,22,29.74,29.64,5,1,5,0.00
2013-2-6,60.1,43.9,28.2,29.2,21.1,14.1,59,41,29,29.66,29.53,12,2,12,0.00
2013-2-7,57.2,43.2,31.5,28.3,21.9,14.5,66,45,23,29.79,29.65,14,2,14,0.00
2013-2-8,59.0,45.6,32.0,27.0,21.2,16.6,59,39,25,29.74,29.44,17,4,17,0.00
2013-2-9,49.1,38.4,29.1,22.3,13.6,5.3,57,37,23,29.50,29.33,21,6,21,0.00
2013-2-10,46.4,33.0,24.6,19.5,14.0,8.7,63,47,26,29.60,29.50,12,3,12,0.00
2013-2-11,49.3,33.2,20.7,21.3,15.3,5.7,71,51,18,29.63,29.53,12,3,12,0.00
2013-2-12,42.4,31.1,22.3,21.2,13.2,6.3,74,50,23,29.78,29.57,9,3,9,0.00
2013-2-13,48.2,34.4,23.4,17.2,13.9,10.4,59,44,28,29.78,29.67,10,4,10,0.00
2013-2-14,51.4,37.6,25.2,21.3,17.4,12.8,64,45,25,29.82,29.68,12,3,12,0.00
2013-2-15,52.2,38.0,24.4,22.5,13.5,5.2,69,41,15,29.97,29.81,14,3,14,0.00
2013-2-16,60.1,42.3,29.3,16.7,10.0,1.5,44,28,12,30.00,29.76,8,2,8,0.00
2013-2-17,62.6,43.2,25.0,13.7,6.6,1.4,39,24,11,29.77,29.40,12,3,12,0.00
2013-2-18,52.9,41.0,30.6,16.3,0.1,-15.8,46,21,7,29.72,29.49,13,4,13,0.00
2013-2-19,63.3,42.1,22.6,31.8,7.8,-10.1,62,27,12,29.71,29.43,18,4,18,0.00
2013-2-20,52.3,43.2,35.1,32.1,26.3,17.1,71,53,27,29.44,29.22,17,6,17,0.00
2013-2-21,45.9,35.5,27.7,29.4,23.4,19.0,79,63,39,29.54,29.25,10,3,10,0.17
2013-2-22,47.8,35.1,28.8,28.7,21.3,15.1,70,58,37,29.67,29.53,12,3,12,0.01
2013-2-23,52.3,36.1,22.3,19.3,14.6,10.4,63,43,27,29.68,29.38,12,3,12,0.00
2013-2-24,41.4,33.7,27.0,23.0,17.1,6.2,84,53,27,29.53,29.32,15,5,15,0.00
2013-2-25,48.9,34.3,22.1,22.5,14.6,6.7,83,49,20,29.69,29.53,9,3,9,0.05
2013-2-26,47.1,34.3,23.9,18.7,8.8,-3.9,60,37,16,29.70,29.48,15,4,15,0.01
2013-2-27,48.4,32.4,18.9,15.1,8.0,3.5,60,38,18,29.88,29.69,7,2,7,0.00
2013-2-28,55.6,37.3,23.9,12.4,7.0,0.4,44,30,12,29.93,29.81,10,3,10,0.00